EW5196 Weather Reports


time (UTC)temp
C
wind
direction
speed
KPH
gust
KPH
rain 1hr
cm
rain 24hr
cm
rain mn
cm
humidity
%
barometer
mb
20260503035028 10 139 4.8 6.4 0.00 0.10 0.10 80 1015.1
20260503034525 10 116 3.2 3.2 0.00 0.10 0.10 77 1015.5
20260503034022 10 146 3.2 3.2 0.00 0.10 0.10 80 1015.3
20260503033520 10 145 3.2 4.8 0.00 0.10 0.10 80 1015.3
20260503033018 10 145 3.2 3.2 0.00 0.10 0.10 80 1015.3
20260503032516 10 137 3.2 4.8 0.00 0.10 0.10 80 1015.1
20260503032014 10 151 3.2 4.8 0.00 0.10 0.10 81 1015.4
20260503031511 10 142 3.2 4.8 0.00 0.10 0.10 79 1015.1
20260503031008 10 155 3.2 3.2 0.00 0.10 0.10 80 1015.2
20260503030504 10 138 3.2 4.8 0.00 0.10 0.10 81 1015.2
20260503030001 10 124 3.2 3.2 0.00 0.10 0.10 83 1015.1
20260503025458 10 134 3.2 3.2 0.00 0.10 0.10 81 1015.1
20260503024956 11 143 3.2 4.8 0.00 0.10 0.10 80 1015.1
20260503024451 11 139 3.2 3.2 0.00 0.10 0.10 75 1015.3
20260503023949 11 161 4.8 4.8 0.00 0.10 0.10 74 1015.2
20260503023446 11 151 3.2 4.8 0.00 0.10 0.10 74 1015.3
20260503022943 11 143 3.2 4.8 0.00 0.10 0.10 75 1015.3
20260503022437 11 150 4.8 4.8 0.00 0.10 0.10 75 1015.3
20260503021934 11 142 3.2 4.8 0.00 0.10 0.10 75 1015.2
20260503021430 11 149 3.2 4.8 0.00 0.10 0.10 75 1014.9
20260503020928 11 140 3.2 4.8 0.00 0.10 0.10 74 1015.2
20260503020425 11 148 3.2 4.8 0.00 0.10 0.10 71 1015.2
20260503015921 11 139 3.2 4.8 0.00 0.10 0.10 70 1015.1
20260503015418 11 122 3.2 3.2 0.00 0.10 0.10 70 1015.2
20260503014914 11 150 3.2 4.8 0.00 0.10 0.10 70 1014.9
20260503014412 11 161 3.2 4.8 0.00 0.10 0.10 72 1015.2
20260503013910 11 149 3.2 3.2 0.00 0.10 0.10 73 1015.2
20260503013406 11 148 4.8 4.8 0.00 0.10 0.10 74 1015.2
20260503012903 11 145 3.2 4.8 0.00 0.10 0.10 74 1014.9
20260503012401 11 145 3.2 4.8 0.00 0.10 0.10 72 1015.0
20260503011857 11 148 3.2 3.2 0.00 0.10 0.10 73 1014.9
20260503011355 11 144 4.8 4.8 0.00 0.10 0.10 75 1014.9
20260503010851 11 124 3.2 3.2 0.00 0.10 0.10 74 1014.9
20260503010348 11 144 3.2 4.8 0.00 0.10 0.10 69 1014.7
20260503005845 11 147 3.2 3.2 0.00 0.10 0.10 70 1014.7
20260503005343 11 142 3.2 3.2 0.00 0.10 0.10 69 1014.7
20260503004838 11 144 4.8 4.8 0.00 0.10 0.10 69 1014.6
20260503004336 12 144 3.2 4.8 0.00 0.10 0.10 67 1014.5
20260503003833 12 131 3.2 3.2 0.00 0.10 0.10 65 1014.4
20260503003330 12 160 3.2 4.8 0.00 0.10 0.10 65 1014.5
20260503002827 12 154 3.2 4.8 0.00 0.10 0.10 65 1014.3
20260503002324 12 141 4.8 4.8 0.00 0.10 0.10 65 1014.1
20260503001820 12 135 3.2 4.8 0.00 0.10 0.10 63 1014.1
20260503001317 12 144 3.2 4.8 0.00 0.10 0.10 62 1014.2
20260503000815 12 140 3.2 3.2 0.00 0.10 0.10 62 1014.3
20260503000312 12 147 4.8 4.8 0.00 0.10 0.10 59 1014.0
20260502235809 12 138 3.2 3.2 0.00 0.10 0.10 58 1013.9
20260502235306 13 159 3.2 4.8 0.00 0.10 0.10 57 1013.9
20260502234803 13 140 3.2 4.8 0.00 0.10 0.10 54 1013.7
20260502234300 13 136 3.2 4.8 0.00 0.10 0.10 49 1013.7
20260502233756 13 141 3.2 3.2 0.00 0.10 0.10 48 1013.5
20260502233253 14 133 3.2 3.2 0.00 0.10 0.10 48 1013.5
20260502232749 14 122 3.2 4.8 0.00 0.10 0.10 49 1013.7
20260502232246 15 150 3.2 3.2 0.00 0.10 0.10 42 1013.2
20260502231742 15 175 4.8 8.0 0.00 0.10 0.10 43 1013.3
20260502231240 15 147 3.2 4.8 0.00 0.10 0.10 41 1013.4
20260502230739 15 147 3.2 3.2 0.00 0.10 0.10 42 1013.4
20260502230236 15 128 4.8 4.8 0.00 0.10 0.10 40 1013.3
20260502225732 15 167 4.8 8.0 0.00 0.10 0.10 41 1013.1
20260502225230 15 140 3.2 6.4 0.00 0.10 0.10 42 1013.1
20260502224726 15 152 1.6 6.4 0.00 0.10 0.10 40 1012.9
20260502224223 15 218 3.2 9.7 0.00 0.10 0.10 40 1012.9
20260502223720 15 208 3.2 8.0 0.00 0.10 0.10 39 1013.0
20260502223218 15 133 4.8 8.0 0.00 0.10 0.10 39 1013.0
20260502222716 15 188 4.8 4.8 0.00 0.10 0.10 40 1013.0
20260502222212 15 205 3.2 6.4 0.00 0.10 0.10 39 1013.0
20260502221708 15 211 3.2 9.7 0.00 0.10 0.10 39 1013.1
20260502221205 15 149 4.8 6.4 0.00 0.10 0.10 40 1013.0
20260502220701 15 175 1.6 8.0 0.00 0.10 0.10 38 1013.3
20260502220157 15 230 1.6 8.0 0.00 0.10 0.10 37 1013.4
20260502215654 16 142 4.8 8.0 0.00 0.10 0.10 38 1013.4
20260502215151 16 259 0.0 4.8 0.00 0.10 0.10 38 1013.3
20260502214649 15 187 1.6 6.4 0.00 0.10 0.10 37 1013.2
20260502214146 16 163 6.4 9.7 0.00 0.10 0.10 37 1013.5
20260502213643 16 185 6.4 8.0 0.00 0.10 0.10 40 1013.2
20260502213140 16 210 3.2 6.4 0.00 0.10 0.10 37 1013.3
20260502212639 16 180 0.0 8.0 0.00 0.10 0.10 37 1013.2
20260502212137 16 99 6.4 8.0 0.00 0.10 0.10 38 1013.2
20260502211632 16 200 6.4 6.4 0.00 0.10 0.10 38 1013.4
20260502211129 16 189 1.6 4.8 0.00 0.10 0.10 38 1013.2
20260502210627 15 119 1.6 4.8 0.00 0.10 0.10 37 1013.1
20260502210123 15 165 6.4 6.4 0.00 0.10 0.10 37 1013.0
20260502205620 15 158 4.8 8.0 0.00 0.10 0.10 39 1013.1
20260502205111 15 215 1.6 4.8 0.00 0.10 0.10 40 1013.0
20260502204608 15 103 4.8 4.8 0.00 0.10 0.10 38 1013.1
20260502204106 15 176 4.8 6.4 0.00 0.10 0.10 38 1013.0
20260502203603 16 148 4.8 6.4 0.00 0.10 0.10 39 1013.2
20260502203100 16 158 4.8 4.8 0.00 0.10 0.10 39 1013.2
20260502202555 16 177 4.8 8.0 0.00 0.10 0.10 38 1013.3
20260502202054 16 184 3.2 11.3 0.00 0.10 0.10 35 1013.3
20260502201550 16 119 3.2 6.4 0.00 0.10 0.10 37 1013.4
20260502201047 16 166 1.6 4.8 0.00 0.10 0.10 40 1013.3
20260502200542 16 152 3.2 4.8 0.00 0.10 0.10 36 1013.4
20260502200040 16 184 3.2 12.9 0.00 0.10 0.10 37 1013.3
20260502195538 16 164 4.8 6.4 0.00 0.10 0.10 39 1013.3
20260502195033 16 164 16.1 16.1 0.00 0.10 0.10 37 1013.1
20260502194530 16 258 0.0 8.0 0.00 0.10 0.10 39 1013.5
20260502194026 15 198 1.6 8.0 0.00 0.10 0.10 40 1013.4
20260502193524 16 164 6.4 8.0 0.00 0.10 0.10 38 1013.6
20260502193021 15 188 4.8 6.4 0.00 0.10 0.10 38 1013.6
20260502192516 16 187 1.6 4.8 0.00 0.10 0.10 37 1013.8
20260502192014 16 143 3.2 6.4 0.00 0.10 0.10 37 1013.6
20260502191510 16 214 0.0 4.8 0.00 0.10 0.10 38 1013.8
20260502191008 15 140 4.8 6.4 0.00 0.10 0.10 37 1014.0
20260502190505 16 137 3.2 4.8 0.00 0.10 0.10 36 1013.9
20260502190002 16 171 0.0 8.0 0.00 0.10 0.10 37 1014.0
20260502185457 15 119 4.8 11.3 0.00 0.10 0.10 37 1014.0
20260502184954 16 249 3.2 4.8 0.00 0.10 0.10 38 1014.1
20260502184449 16 206 4.8 6.4 0.00 0.10 0.10 38 1014.4
20260502183947 16 184 6.4 9.7 0.00 0.10 0.10 38 1014.3
20260502183443 16 187 4.8 9.7 0.00 0.10 0.10 39 1014.2
20260502182938 15 153 3.2 6.4 0.00 0.10 0.10 39 1014.2
20260502182434 15 226 6.4 16.1 0.00 0.10 0.10 37 1014.4
20260502181930 15 109 4.8 11.3 0.00 0.10 0.10 37 1014.4
20260502181428 15 166 1.6 4.8 0.00 0.10 0.10 39 1014.7
20260502180926 15 166 4.8 6.4 0.00 0.10 0.10 38 1014.6
20260502180423 15 126 6.4 12.9 0.00 0.10 0.10 40 1014.6
20260502170342 13 152 4.8 6.4 0.66 0.10 0.10 43 1016.0
20260502164330 13 127 3.2 4.8 0.00 0.00 0.00 46 1015.9
20260502163826 13 158 3.2 3.2 0.00 0.00 0.00 45 1015.8
20260502163322 13 123 0.0 4.8 0.00 0.00 0.00 44 1015.9
20260502162820 13 177 0.0 4.8 0.00 0.00 0.00 44 1015.9
20260502162316 13 161 4.8 4.8 0.00 0.00 0.00 43 1015.8
20260502161813 13 114 0.0 4.8 0.00 0.00 0.00 44 1016.1
20260502161303 13 151 3.2 3.2 0.00 0.00 0.00 45 1016.1
20260502160801 13 141 4.8 6.4 0.00 0.00 0.00 43 1016.4
20260502160300 13 111 1.6 6.4 0.00 0.00 0.00 43 1016.1
20260502152229 12 164 3.2 4.8 0.00 0.00 0.00 47 1016.6
20260502151727 12 161 1.6 4.8 0.00 0.00 0.00 48 1016.6
20260502151224 12 136 4.8 4.8 0.00 0.00 0.00 48 1016.2
20260502150721 12 123 4.8 6.4 0.00 0.00 0.00 50 1016.3
20260502150218 12 169 3.2 6.4 0.00 0.00 0.00 49 1016.2
20260502130606 11 239 1.6 9.7 0.00 0.00 0.00 60 1015.7
20260502130104 11 188 1.6 4.8 0.00 0.00 0.00 63 1015.8
20260502123549 11 152 4.8 9.7 0.00 0.00 0.00 65 1015.3
20260502123045 11 153 3.2 3.2 0.00 0.00 0.00 68 1015.4
20260502122542 11 147 4.8 9.7 0.00 0.00 0.00 68 1015.5
20260502122040 11 175 3.2 8.0 0.00 0.00 0.00 69 1015.4
20260502121537 11 144 3.2 4.8 0.00 0.00 0.00 70 1015.6
20260502121035 11 255 0.0 6.4 0.00 0.00 0.00 71 1015.3
20260502120531 11 171 1.6 4.8 0.00 0.00 0.00 71 1015.3
20260502115526 10 137 4.8 4.8 0.00 0.00 0.00 72 1015.1
20260502115021 10 143 1.6 4.8 0.00 0.00 0.00 73 1015.2
20260502114518 10 129 3.2 9.7 0.00 0.00 0.00 73 1015.1
20260502114015 10 149 3.2 4.8 0.00 0.00 0.00 75 1015.4
20260502113513 10 163 1.6 6.4 0.00 0.00 0.00 77 1015.1
20260502113011 10 139 1.6 4.8 0.00 0.00 0.00 81 1015.2
20260502112509 10 140 4.8 4.8 0.00 0.00 0.00 84 1015.3
20260502112006 9 142 1.6 4.8 0.00 0.00 0.00 89 1015.3
20260502111503 9 140 1.6 3.2 0.00 0.00 0.00 91 1015.2
20260502111000 8 150 1.6 3.2 0.00 0.00 0.00 92 1015.5
20260502110458 8 148 3.2 3.2 0.00 0.00 0.00 93 1015.4
20260502105955 8 152 3.2 3.2 0.00 0.00 0.00 93 1015.3
20260502105453 8 157 3.2 3.2 0.00 0.00 0.00 94 1015.3
20260502104950 8 152 1.6 3.2 0.00 0.00 0.00 93 1015.3
20260502104447 8 154 1.6 3.2 0.00 0.00 0.00 93 1015.3
20260502103944 8 161 1.6 3.2 0.00 0.00 0.00 94 1015.2
20260502103442 8 148 1.6 3.2 0.00 0.00 0.00 94 1015.0
20260502102938 8 157 3.2 3.2 0.00 0.00 0.00 94 1015.2
20260502102436 8 151 3.2 3.2 0.00 0.00 0.00 94 1015.2
20260502101932 8 154 1.6 3.2 0.00 0.00 0.00 94 1015.0
20260502101431 8 151 3.2 3.2 0.00 0.00 0.00 94 1015.0
20260502100929 8 145 1.6 3.2 0.00 0.00 0.00 94 1014.8
20260502100428 8 137 1.6 3.2 0.00 0.00 0.00 94 1014.6
20260502091402 8 154 1.6 3.2 0.00 0.00 0.00 94 1014.6
20260502090859 8 157 1.6 3.2 0.00 0.00 0.00 93 1014.5
20260502090355 8 143 1.6 3.2 0.00 0.00 0.00 93 1014.6
20260502071251 10 165 1.6 3.2 0.00 0.00 0.00 87 1014.0
20260502070749 10 147 3.2 3.2 0.00 0.00 0.00 87 1013.9
20260502070246 10 150 1.6 3.2 0.00 0.00 0.00 86 1014.0
20260502065745 10 148 3.2 3.2 0.00 0.00 0.00 85 1014.1
20260502065242 10 138 1.6 3.2 0.00 0.00 0.00 85 1013.9
20260502064741 10 155 3.2 3.2 0.00 0.00 0.00 85 1014.0
20260502064238 10 137 1.6 3.2 0.00 0.00 0.00 84 1014.0
20260502063735 10 152 3.2 3.2 0.00 0.00 0.00 85 1013.9
20260502063233 11 151 3.2 3.2 0.00 0.00 0.00 84 1013.9
20260502062730 11 151 3.2 3.2 0.00 0.00 0.00 83 1013.9
20260502062228 11 152 1.6 3.2 0.00 0.00 0.00 83 1014.0
20260502061726 11 160 3.2 4.8 0.00 0.00 0.00 81 1013.8
20260502061223 11 150 1.6 3.2 0.00 0.00 0.00 80 1014.2
20260502060718 11 146 3.2 3.2 0.00 0.00 0.00 79 1014.0
20260502060214 11 145 3.2 3.2 0.00 0.00 0.00 78 1014.0
20260502055713 11 154 3.2 4.8 0.00 0.00 0.00 78 1014.1
20260502055210 11 146 3.2 3.2 0.00 0.00 0.00 78 1014.3
20260502054709 11 141 3.2 3.2 0.00 0.00 0.00 78 1014.4
20260502054206 11 147 3.2 3.2 0.00 0.00 0.00 79 1014.5
20260502053703 12 146 3.2 3.2 0.00 0.00 0.00 79 1014.5
20260502053201 12 142 1.6 3.2 0.00 0.00 0.00 79 1014.4
20260502052659 12 158 3.2 3.2 0.00 0.00 0.00 76 1014.4
20260502052157 12 154 3.2 3.2 0.00 0.00 0.00 76 1014.1
20260502051654 12 155 3.2 3.2 0.00 0.00 0.00 76 1014.2
20260502051152 12 155 3.2 3.2 0.00 0.00 0.00 75 1014.1
20260502050642 12 161 3.2 4.8 0.00 0.00 0.00 75 1014.1
20260502050139 12 162 3.2 4.8 0.00 0.00 0.00 75 1014.2
20260502045636 12 166 3.2 4.8 0.00 0.00 0.00 74 1014.1
20260502045133 12 149 3.2 3.2 0.00 0.00 0.00 73 1014.3
20260502044629 12 154 3.2 4.8 0.00 0.00 0.00 73 1014.2
20260502044126 12 164 3.2 4.8 0.00 0.00 0.00 73 1014.4
20260502043624 12 169 3.2 4.8 0.00 0.00 0.00 72 1014.3
20260502043115 12 165 4.8 4.8 0.00 0.00 0.00 73 1014.4
20260502042614 12 144 3.2 4.8 0.00 0.00 0.00 72 1014.6
20260502042112 12 145 3.2 4.8 0.00 0.00 0.00 72 1014.5
20260502041610 12 142 3.2 4.8 0.00 0.00 0.00 71 1014.5
20260502041107 13 150 3.2 4.8 0.00 0.00 0.00 71 1014.4
20260502040603 13 155 4.8 4.8 0.00 0.00 0.00 71 1014.4
20260502040101 13 142 3.2 4.8 0.00 0.00 0.00 71 1014.2
20260502035556 13 166 4.8 4.8 0.00 0.00 0.00 70 1014.4